User: anonymous   Login
Location: Unspecified
(0.0000°N, 0.0000°E)
Time: 00:10:21
(UTC+00:00)
Language:

YAOGAN 12 - Orbit

View from above orbital plane
View from above orbital plane
View from above satellite
View from above satellite

Ground track
Ground track

The orbit data is extracted from the following two-line orbital elements,

1 37875U 11066B   18112.51644103  .00001137  00000-0  48704-4 0  9990
2 37875  97.5063 183.1524 0001181  29.3090  85.1204 15.24844023359145
Epoch (UTC): 22 April 2018 12:23:40
Eccentricity: 0.0001181
inclination: 97.5063°
perigee height: 490 km
apogee height: 492 km
right ascension of ascending node: 183.1524°
argument of perigee: 29.3090°
revolutions per day: 15.24844023
mean anomaly at epoch: 85.1204°
orbit number at epoch: 35914

The dashed part of the orbit path shows where the satellite is in the earth's shadow,  

DLR